Location: Newark
(52.3735°N, 16.9806°E)
Time: 04:58:36
(UTC+00:00)

LilacSat-2 - Pass Details

Date: 03 December 2021
Orbit: 511 x 532 km, 97.5° (Epoch: 16 January)

Event Time Altitude Azimuth Distance (km) Brightness Sun altitude
Rises 05:16:50 0° 10° (N) 2,686 ? -12.3°
Reaches altitude 10° 05:18:58 10° 6° (N) 1,794 ? -12.0°
Maximum altitude 05:22:46 55° 289° (WNW) 646 ? -11.4°
Drops below altitude 10° 05:26:32 10° 211° (SSW) 1,784 ? -10.9°
Sets 05:28:40 0° 207° (SSW) 2,670 ? -10.6°
